This demonstration page uses our WeatherBlox Daily Observations layout. Learn more.

Left ArrowRight Arrow

34.74481, -87.66753

Hourly Observations for January 10, 2022

Temp ( °F °C ) Dew Point ( °F °C ) Humidity (%) Winds ( mph kmh ) Pressure ( in mb ) Visibility ( mi km ) Precip ( " mm )
12:53 am 00:53 Clear 36 2.2 24 -4.4 62 62 N 9 15 30.48 1032 10 16 0.00 0.00
1:53 am 01:53 Clear 34 1.1 21 -6.1 59 59 N 8 13 30.47 1032 10 16 0.00 0.00
2:53 am 02:53 Clear 33 0.6 19 -7.2 56 56 NNE 12 19 30.49 1033 10 16 0.00 0.00
3:53 am 03:53 Clear 32 0 18 -7.8 56 56 N 8 13 30.50 1033 10 16 0.00 0.00
4:53 am 04:53 Clear 31 -0.6 15 -9.4 52 52 NNE 13 20 30.51 1033 10 16 0.00 0.00
5:53 am 05:53 Clear 30 -1.1 15 -9.4 54 54 NNE 7 11 30.53 1034 10 16 0.00 0.00
6:53 am 06:53 Clear 30 -1.1 14 -10 51 51 NE 5 7 30.54 1034 9 14 0.00 0.00
7:53 am 07:53 Sunny 31 -0.6 17 -8.3 56 56 Calm 30.55 1035 10 16 0.00 0.00
8:53 am 08:53 Sunny 33 0.6 16 -8.9 49 49 NNW 12 19 30.59 1036 10 16 0.00 0.00
9:53 am 09:53 Sunny 36 2.2 17 -8.3 46 46 N 6 9 30.61 1037 10 16 0.00 0.00
10:53 am 10:53 Sunny 40 4.4 18 -7.8 41 41 VRB 3 6 30.60 1036 10 16 0.00 0.00
11:53 am 11:53 Sunny 44 6.7 18 -7.8 35 35 VRB 3 6 30.56 1035 10 16 0.00 0.00
12:53 pm 12:53 Sunny 46 7.8 16 -8.9 30 30 NNE 8 13 30.53 1034 10 16 0.00 0.00
1:53 pm 13:53 Sunny 47 8.3 15 -9.4 28 28 N 7 11 30.51 1033 10 16 0.00 0.00
2:53 pm 14:53 Sunny 49 9.4 14 -10 25 25 NW 8 13 30.50 1033 10 16 0.00 0.00
3:53 pm 15:53 Sunny 48 8.9 16 -8.9 28 28 NW 12 19 30.51 1033 10 16 0.00 0.00
4:53 pm 16:53 Sunny 44 6.7 17 -8.3 34 34 NW 9 15 30.53 1034 10 16 0.00 0.00
5:53 pm 17:53 Clear 42 5.6 16 -8.9 35 35 NNW 5 7 30.54 1034 10 16 0.00 0.00
6:53 pm 18:53 Clear 40 4.4 17 -8.3 40 40 NNW 3 6 30.55 1035 10 16 0.00 0.00
7:53 pm 19:53 Clear 39 3.9 17 -8.3 41 41 Calm 30.55 1035 10 16 0.00 0.00
9:53 pm 21:53 Clear 37 2.8 17 -8.3 44 44 N 5 7 30.55 1035 10 16 0.00 0.00
10:53 pm 22:53 Clear 36 2.2 17 -8.3 46 46 VRB 3 6 30.55 1035 10 16 0.00 0.00
11:53 pm 23:53 Clear 36 2.2 17 -8.3 46 46 Calm 30.54 1034 10 16 0.00 0.00

Powered by AerisWeather